• In Portugal
  • List of Countries
  • For 7 days
  • Water Temperature
  • Satellite Maps
  • Weather Map
  • Weather Widgets
  • user-avatar
    Login

    Hourly Weather Tuzla

    Today, 20 June, Wednesday

    Time Temperature Precipitation Wind Pressure Humidity
    00:00 +18°C° 0 mm 1 mps 725 mmHg 96%
    01:00 +16°C° 0 mm 1 mps 725 mmHg 96%
    02:00 +16°C° 0 mm 1 mps 725 mmHg 96%
    03:00 +16°C° 0 mm 1 mps 725 mmHg 97%
    04:00 +16°C° 0 mm 1 mps 725 mmHg 97%
    05:00 +18°C° 0 mm 1 mps 725 mmHg 94%
    06:00 +20°C° 0 mm 1 mps 725 mmHg 91%
    07:00 +19°C° 0 mm 0 mps 726 mmHg 88%
    08:00 +23°C° 0 mm 1 mps 726 mmHg 79%
    09:00 +25°C° 0 mm 1 mps 726 mmHg 71%
    10:00 +27°C° 0 mm 1 mps 726 mmHg 62%
    11:00 +27°C° 0 mm 2 mps 726 mmHg 59%
    12:00 +28°C° 0 mm 2 mps 726 mmHg 57%
    13:00 +29°C° 0 mm 2 mps 726 mmHg 54%
    14:00 +28°C° 0.3 mm 2 mps 725 mmHg 59%
    15:00 +28°C° 0.3 mm 2 mps 725 mmHg 64%
    16:00 +27°C° 0.3 mm 2 mps 725 mmHg 68%
    17:00 +26°C° 0.3 mm 2 mps 724 mmHg 74%
    18:00 +25°C° 0.3 mm 1 mps 724 mmHg 79%
    19:00 +23°C° 0.3 mm 1 mps 724 mmHg 85%
    20:00 +22°C° 0 mm 1 mps 724 mmHg 87%
    21:00 +21°C° 0 mm 1 mps 724 mmHg 89%
    22:00 +20°C° 0 mm 1 mps 725 mmHg 91%
    23:00 +19°C° 0 mm 1 mps 724 mmHg 91%

    Tomorrow, 21 June, Thursday

    Time Temperature Precipitation Wind Pressure Humidity
    00:00 +19°C° 0 mm 1 mps 724 mmHg 92%
    01:00 +18°C° 0 mm 1 mps 724 mmHg 92%
    02:00 +18°C° 0 mm 1 mps 724 mmHg 92%
    03:00 +18°C° 0 mm 1 mps 723 mmHg 92%
    04:00 +18°C° 0 mm 1 mps 723 mmHg 92%
    05:00 +19°C° 0 mm 1 mps 723 mmHg 87%
    06:00 +21°C° 0 mm 1 mps 723 mmHg 81%
    07:00 +23°C° 0 mm 1 mps 723 mmHg 76%
    08:00 +25°C° 0 mm 1 mps 723 mmHg 67%
    09:00 +27°C° 0 mm 1 mps 723 mmHg 59%
    10:00 +30°C° 0 mm 1 mps 723 mmHg 50%
    11:00 +30°C° 0 mm 1 mps 723 mmHg 48%
    12:00 +31°C° 0 mm 1 mps 722 mmHg 45%
    13:00 +32°C° 0 mm 2 mps 722 mmHg 42%
    14:00 +31°C° 0.1 mm 2 mps 721 mmHg 46%
    15:00 +30°C° 0.1 mm 2 mps 721 mmHg 49%
    16:00 +30°C° 0.1 mm 2 mps 720 mmHg 52%
    17:00 +28°C° 0.1 mm 2 mps 720 mmHg 62%
    18:00 +26°C° 0.1 mm 1 mps 720 mmHg 71%
    19:00 +24°C° 0.1 mm 1 mps 720 mmHg 80%
    20:00 +23°C° 0.1 mm 1 mps 720 mmHg 82%
    21:00 +22°C° 0.1 mm 1 mps 720 mmHg 85%
    22:00 +21°C° 0.1 mm 1 mps 720 mmHg 87%
    23:00 +20°C° 0.2 mm 1 mps 720 mmHg 87%

    Day after tomorrow, 22 June, Friday

    Time Temperature Precipitation Wind Pressure Humidity
    00:00 +20°C° 0.2 mm 1 mps 720 mmHg 88%
    01:00 +18°C° 0.2 mm 2 mps 720 mmHg 89%
    02:00 +19°C° 0.5 mm 1 mps 720 mmHg 90%
    03:00 +18°C° 0.5 mm 1 mps 720 mmHg 92%
    04:00 +18°C° 0.5 mm 1 mps 720 mmHg 94%
    05:00 +17°C° 0.5 mm 2 mps 720 mmHg 94%
    06:00 +18°C° 0.5 mm 2 mps 721 mmHg 93%
    07:00 +19°C° 0.5 mm 2 mps 721 mmHg 93%
    08:00 +18°C° 0.5 mm 3 mps 722 mmHg 93%
    09:00 +17°C° 0.5 mm 3 mps 722 mmHg 93%
    10:00 +14°C° 0.5 mm 3 mps 722 mmHg 93%
    11:00 +14°C° 0.1 mm 3 mps 723 mmHg 86%
    12:00 +14°C° 0.1 mm 3 mps 723 mmHg 79%
    13:00 +14°C° 0.1 mm 3 mps 723 mmHg 71%
    14:00 +14°C° 0 mm 3 mps 724 mmHg 69%
    15:00 +13°C° 0 mm 3 mps 724 mmHg 67%
    16:00 +13°C° 0 mm 3 mps 724 mmHg 65%
    17:00 +13°C° 0 mm 2 mps 724 mmHg 67%
    18:00 +13°C° 0 mm 2 mps 724 mmHg 69%
    19:00 +12°C° 0 mm 1 mps 724 mmHg 72%
    20:00 +11°C° 0.1 mm 1 mps 724 mmHg 77%
    21:00 +11°C° 0.1 mm 1 mps 725 mmHg 82%
    22:00 +10°C° 0.1 mm 1 mps 725 mmHg 86%
    23:00 +10°C° 0.1 mm 1 mps 725 mmHg 88%

    23 June, Saturday

    Time Temperature Precipitation Wind Pressure Humidity
    00:00 +9°C° 0.1 mm 1 mps 725 mmHg 90%
    01:00 +8°C° 0.1 mm 1 mps 725 mmHg 92%
    02:00 +8°C° 0 mm 1 mps 725 mmHg 92%
    03:00 +7°C° 0 mm 1 mps 724 mmHg 91%
    04:00 +7°C° 0 mm 1 mps 724 mmHg 90%
    05:00 +9°C° 0 mm 1 mps 725 mmHg 85%
    06:00 +11°C° 0 mm 1 mps 725 mmHg 79%
    07:00 +13°C° 0 mm 1 mps 725 mmHg 74%
    08:00 +15°C° 0 mm 1 mps 725 mmHg 66%
    09:00 +16°C° 0 mm 2 mps 725 mmHg 58%
    10:00 +18°C° 0 mm 2 mps 725 mmHg 50%
    11:00 +19°C° 0 mm 2 mps 725 mmHg 48%
    12:00 +20°C° 0 mm 3 mps 725 mmHg 46%
    13:00 +20°C° 0 mm 3 mps 724 mmHg 44%
    14:00 +20°C° 0 mm 3 mps 724 mmHg 46%
    15:00 +20°C° 0 mm 3 mps 724 mmHg 48%
    16:00 +20°C° 0 mm 3 mps 724 mmHg 50%
    17:00 +18°C° 0 mm 2 mps 724 mmHg 59%
    18:00 +17°C° 0 mm 2 mps 723 mmHg 68%
    19:00 +15°C° 0 mm 1 mps 723 mmHg 77%
    20:00 +14°C° 0 mm 1 mps 724 mmHg 81%
    21:00 +13°C° 0 mm 1 mps 724 mmHg 85%
    22:00 +11°C° 0 mm 1 mps 724 mmHg 90%
    23:00 +11°C° 0 mm 1 mps 724 mmHg 90%

    24 June, Sunday

    Time Temperature Precipitation Wind Pressure Humidity
    00:00 +10°C° 0 mm 1 mps 724 mmHg 91%
    01:00 +10°C° 0 mm 1 mps 724 mmHg 92%
    02:00 +10°C° 0 mm 1 mps 724 mmHg 92%
    03:00 +10°C° 0 mm 1 mps 724 mmHg 92%
    04:00 +9°C° 0 mm 1 mps 724 mmHg 92%
    05:00 +11°C° 0 mm 1 mps 724 mmHg 85%
    06:00 +14°C° 0 mm 1 mps 724 mmHg 78%
    07:00 +16°C° 0 mm 1 mps 724 mmHg 72%
    08:00 +18°C° 0 mm 1 mps 724 mmHg 64%
    09:00 +19°C° 0 mm 2 mps 725 mmHg 56%
    10:00 +20°C° 0 mm 3 mps 725 mmHg 49%
    11:00 +20°C° 0 mm 3 mps 724 mmHg 48%
    12:00 +21°C° 0 mm 3 mps 724 mmHg 47%
    13:00 +21°C° 0 mm 3 mps 724 mmHg 46%
    14:00 +21°C° 0 mm 3 mps 724 mmHg 47%
    15:00 +21°C° 0 mm 3 mps 724 mmHg 49%
    16:00 +21°C° 0 mm 3 mps 723 mmHg 51%
    17:00 +19°C° 0 mm 2 mps 723 mmHg 59%
    18:00 +18°C° 0 mm 2 mps 723 mmHg 67%
    19:00 +16°C° 0 mm 1 mps 723 mmHg 76%
    20:00 +15°C° 0 mm 1 mps 723 mmHg 80%
    21:00 +14°C° 0 mm 1 mps 723 mmHg 85%
    22:00 +12°C° 0 mm 1 mps 723 mmHg 89%
    23:00 +11°C° 0 mm 0 mps 723 mmHg 90%

    25 June, Monday

    Time Temperature Precipitation Wind Pressure Humidity
    00:00 +11°C° 0 mm 0 mps 723 mmHg 91%
    01:00 +10°C° 0 mm 0 mps 723 mmHg 91%
    02:00 +10°C° 0 mm 0 mps 723 mmHg 92%
    03:00 +9°C° 0 mm 0 mps 723 mmHg 92%
    04:00 +9°C° 0 mm 0 mps 723 mmHg 93%
    05:00 +11°C° 0 mm 0 mps 723 mmHg 87%
    06:00 +14°C° 0 mm 1 mps 723 mmHg 80%
    07:00 +16°C° 0 mm 1 mps 724 mmHg 74%
    08:00 +19°C° 0 mm 1 mps 723 mmHg 67%
    09:00 +19°C° 0 mm 2 mps 723 mmHg 60%
    10:00 +20°C° 0 mm 2 mps 723 mmHg 53%
    11:00 +21°C° 0 mm 3 mps 723 mmHg 52%
    12:00 +21°C° 0 mm 3 mps 723 mmHg 51%
    13:00 +22°C° 0 mm 3 mps 722 mmHg 50%
    14:00 +21°C° 0.1 mm 3 mps 722 mmHg 52%
    15:00 +21°C° 0.1 mm 3 mps 722 mmHg 55%
    16:00 +21°C° 0.1 mm 3 mps 722 mmHg 57%
    17:00 +20°C° 0.1 mm 2 mps 722 mmHg 65%
    18:00 +18°C° 0.1 mm 2 mps 722 mmHg 73%
    19:00 +18°C° 0.1 mm 1 mps 722 mmHg 81%
    20:00 +15°C° 0 mm 1 mps 722 mmHg 84%
    21:00 +14°C° 0 mm 1 mps 722 mmHg 87%
    22:00 +13°C° 0 mm 1 mps 722 mmHg 89%
    23:00 +12°C° 0 mm 1 mps 722 mmHg 90%
    Show more